Tracking 19170 objects as of 23-May-2018
HD Live streaming from Space Station
objects crossing your sky now

NOAA 16 DEB

Track NOAA 16 DEB now!
10-day predictions


NORAD ID: 41227
Int'l Code: 2000-055EG
Perigee: 805.1 km
Apogee: 858.8 km
Inclination: 99.0 °
Period: 101.4 minutes
Semi major axis: 7202 km
RCS: Unknown
Launch date: September 21, 2000
Source: United States (US)
Launch site: AIR FORCE WESTERN TEST RANGE (AFWTR)

Note: This is SATELLITE DEBRIS
aabbcc
Your satellite tracking list
Your tracking list is empty




NASA's NSSDC Master Catalog

Two Line Element Set (TLE):
1 41227U 00055EG  18142.51400331  .00001041  00000-0  50606-3 0  9995
2 41227  99.0133 240.6679 0037287  19.5078 340.7515 14.20148374126260
Source of the keplerian elements: AFSPC